Time,TemperatureF,DewpointF,PressureIn,WindDirection,WindDirectionDegrees,WindSpeedMPH,WindSpeedGustMPH,Humidity,HourlyPrecipIn,Conditions,Clouds,dailyrainin,SoftwareType,DateUTC
2013-01-04 00:00:00,26.7,21.1,28.84,North,354,3.0,13.0,79,0.00,,---,0.00,VWS V14.01,2013-01-04 05:00:00,
2013-01-04 00:01:00,26.9,21.3,28.86,NW,304,2.0,7.0,79,0.00,,---,0.00,VWS V14.01,2013-01-04 05:01:00,
2013-01-04 00:03:00,26.9,21.3,28.86,NW,304,4.0,7.0,79,0.00,,---,0.00,VWS V14.01,2013-01-04 05:03:00,
2013-01-04 00:07:00,26.9,21.3,28.85,NW,325,4.0,11.0,79,0.00,,---,0.00,VWS V14.01,2013-01-04 05:07:00,
2013-01-04 00:09:00,26.8,21.2,28.85,NNW,348,5.0,11.0,79,0.00,,---,0.00,VWS V14.01,2013-01-04 05:09:00,
2013-01-04 00:15:00,26.8,21.2,28.85,NNW,336,7.0,11.0,79,0.00,,---,0.00,VWS V14.01,2013-01-04 05:15:00,
2013-01-04 00:22:00,26.8,21.2,28.85,North,7,7.0,12.0,79,0.00,,---,0.00,VWS V14.01,2013-01-04 05:22:00,
2013-01-04 00:28:00,26.9,21.3,28.84,WNW,293,4.0,15.0,79,0.00,,---,0.00,VWS V14.01,2013-01-04 05:28:00,
2013-01-04 00:30:00,26.7,21.1,28.84,NW,316,5.0,14.0,79,0.00,,---,0.00,VWS V14.01,2013-01-04 05:30:00,
2013-01-04 00:34:00,26.9,21.3,28.84,WNW,289,4.0,12.0,79,0.00,,---,0.00,VWS V14.01,2013-01-04 05:34:00,
2013-01-04 00:40:00,26.8,21.2,28.84,WNW,291,10.0,12.0,79,0.00,,---,0.00,VWS V14.01,2013-01-04 05:40:00,
2013-01-04 00:46:00,26.8,21.2,28.84,NNW,329,0.0,12.0,79,0.00,,---,0.00,VWS V14.01,2013-01-04 05:46:00,
2013-01-04 00:52:00,26.7,20.8,28.84,NW,318,8.0,12.0,78,0.00,,---,0.00,VWS V14.01,2013-01-04 05:52:00,
2013-01-04 00:58:00,26.7,20.8,28.84,NW,320,2.0,12.0,78,0.00,,---,0.00,VWS V14.01,2013-01-04 05:58:00,
2013-01-04 01:00:00,26.8,21.2,28.84,NNW,334,7.0,15.0,79,0.00,,---,0.00,VWS V14.01,2013-01-04 06:00:00,
2013-01-04 01:04:00,26.7,21.1,28.83,NNW,341,7.0,10.0,79,0.00,,---,0.00,VWS V14.01,2013-01-04 06:04:00,
2013-01-04 01:10:00,26.7,21.1,28.84,WNW,302,8.0,11.0,79,0.00,,---,0.00,VWS V14.01,2013-01-04 06:10:00,
2013-01-04 01:16:00,26.7,21.1,28.84,NNW,339,3.0,13.0,79,0.00,,---,0.00,VWS V14.01,2013-01-04 06:16:00,
2013-01-04 01:22:00,26.7,21.1,28.84,NW,323,7.0,14.0,79,0.00,,---,0.00,VWS V14.01,2013-01-04 06:22:00,
2013-01-04 01:28:00,26.7,21.1,28.84,NW,326,2.0,14.0,79,0.00,,---,0.00,VWS V14.01,2013-01-04 06:28:00,
2013-01-04 01:30:00,26.9,21.3,28.84,NW,315,7.0,16.0,79,0.00,,---,0.00,VWS V14.01,2013-01-04 06:30:00,
2013-01-04 01:34:00,26.7,21.1,28.84,NNW,334,7.0,9.0,79,0.00,,---,0.00,VWS V14.01,2013-01-04 06:34:00,
2013-01-04 01:40:00,26.7,21.1,28.84,NNW,342,5.0,10.0,79,0.00,,---,0.00,VWS V14.01,2013-01-04 06:40:00,
2013-01-04 01:46:00,26.7,21.1,28.84,NNW,343,5.0,15.0,79,0.00,,---,0.00,VWS V14.01,2013-01-04 06:46:00,
2013-01-04 01:52:00,26.8,21.2,28.84,WNW,302,4.0,15.0,79,0.00,,---,0.00,VWS V14.01,2013-01-04 06:52:00,
2013-01-04 01:58:00,26.8,21.2,28.84,NW,319,9.0,15.0,79,0.00,,---,0.00,VWS V14.01,2013-01-04 06:58:00,
2013-01-04 02:00:00,27.0,21.1,28.85,NW,308,14.0,16.0,78,0.00,,---,0.00,VWS V14.01,2013-01-04 07:00:00,
2013-01-04 02:04:00,26.8,21.2,28.84,NNW,327,9.0,15.0,79,0.00,,---,0.00,VWS V14.01,2013-01-04 07:04:00,
2013-01-04 02:11:00,26.8,21.2,28.84,NW,312,6.0,15.0,79,0.00,,---,0.00,VWS V14.01,2013-01-04 07:11:00,
2013-01-04 02:17:00,26.9,21.3,28.84,North,350,7.0,16.0,79,0.00,,---,0.00,VWS V14.01,2013-01-04 07:17:00,
2013-01-04 02:23:00,26.8,21.2,28.84,NW,310,7.0,16.0,79,0.00,,---,0.00,VWS V14.01,2013-01-04 07:23:00,
2013-01-04 02:29:00,26.9,21.3,28.85,WNW,301,7.0,16.0,79,0.00,,---,0.00,VWS V14.01,2013-01-04 07:29:00,
2013-01-04 02:30:00,27.0,20.8,28.84,NW,326,10.0,15.0,77,0.00,,---,0.00,VWS V14.01,2013-01-04 07:30:00,
2013-01-04 02:35:00,26.9,21.3,28.85,NNW,337,7.0,10.0,79,0.00,,---,0.00,VWS V14.01,2013-01-04 07:35:00,
2013-01-04 02:41:00,26.9,21.3,28.85,NW,313,11.0,16.0,79,0.00,,---,0.00,VWS V14.01,2013-01-04 07:41:00,
2013-01-04 02:47:00,27.0,21.4,28.85,NW,320,12.0,16.0,79,0.00,,---,0.00,VWS V14.01,2013-01-04 07:47:00,
2013-01-04 02:53:00,27.0,21.4,28.85,NW,321,6.0,16.0,79,0.00,,---,0.00,VWS V14.01,2013-01-04 07:53:00,
2013-01-04 02:59:00,27.0,21.1,28.85,WNW,289,6.0,16.0,78,0.00,,---,0.00,VWS V14.01,2013-01-04 07:59:00,
2013-01-04 03:00:00,27.1,20.9,28.84,NW,320,7.0,16.0,77,0.00,,---,0.00,VWS V14.01,2013-01-04 08:00:00,
2013-01-04 03:05:00,27.0,21.1,28.85,NW,304,9.0,14.0,78,0.00,,---,0.00,VWS V14.01,2013-01-04 08:05:00,
2013-01-04 03:11:00,27.0,21.1,28.85,WNW,285,3.0,14.0,78,0.00,,---,0.00,VWS V14.01,2013-01-04 08:11:00,
2013-01-04 03:17:00,27.0,21.1,28.85,WNW,294,6.0,14.0,78,0.00,,---,0.00,VWS V14.01,2013-01-04 08:17:00,
2013-01-04 03:23:00,27.0,20.8,28.84,NW,318,8.0,14.0,77,0.00,,---,0.00,VWS V14.01,2013-01-04 08:23:00,
2013-01-04 03:29:00,27.0,20.8,28.84,NW,320,13.0,15.0,77,0.00,,---,0.00,VWS V14.01,2013-01-04 08:29:00,
2013-01-04 03:30:00,27.0,20.5,28.84,NW,312,4.0,16.0,76,0.00,,---,0.00,VWS V14.01,2013-01-04 08:30:00,
2013-01-04 03:35:00,27.0,20.8,28.84,NW,306,6.0,10.0,77,0.00,,---,0.00,VWS V14.01,2013-01-04 08:35:00,
2013-01-04 03:41:00,27.0,20.8,28.84,WNW,290,1.0,16.0,77,0.00,,---,0.00,VWS V14.01,2013-01-04 08:41:00,
2013-01-04 03:47:00,27.0,20.8,28.84,NW,326,7.0,16.0,77,0.00,,---,0.00,VWS V14.01,2013-01-04 08:47:00,
2013-01-04 03:53:00,27.1,20.9,28.84,NW,319,8.0,16.0,77,0.00,,---,0.00,VWS V14.01,2013-01-04 08:53:00,
2013-01-04 04:00:00,27.1,20.9,28.84,NNW,340,9.0,16.0,77,0.00,,---,0.00,VWS V14.01,2013-01-04 09:00:00,
2013-01-04 04:06:00,27.1,20.5,28.84,NW,315,9.0,14.0,76,0.00,,---,0.00,VWS V14.01,2013-01-04 09:06:00,
2013-01-04 04:12:00,27.1,20.5,28.84,NW,323,7.0,16.0,76,0.00,,---,0.00,VWS V14.01,2013-01-04 09:12:00,
2013-01-04 04:18:00,27.1,20.5,28.84,NNW,337,5.0,16.0,76,0.00,,---,0.00,VWS V14.01,2013-01-04 09:18:00,
2013-01-04 04:24:00,27.0,20.5,28.84,NW,325,4.0,16.0,76,0.00,,---,0.00,VWS V14.01,2013-01-04 09:24:00,
2013-01-04 04:30:00,27.0,20.5,28.84,NW,310,4.0,16.0,76,0.00,,---,0.00,VWS V14.01,2013-01-04 09:30:00,
2013-01-04 04:36:00,27.0,20.5,28.84,NW,318,6.0,18.0,76,0.00,,---,0.00,VWS V14.01,2013-01-04 09:36:00,
2013-01-04 04:42:00,27.0,20.5,28.84,WNW,293,7.0,18.0,76,0.00,,---,0.00,VWS V14.01,2013-01-04 09:42:00,
2013-01-04 04:48:00,27.0,20.1,28.83,NNW,331,10.0,18.0,75,0.00,,---,0.00,VWS V14.01,2013-01-04 09:48:00,
2013-01-04 04:54:00,27.0,20.1,28.83,NNW,343,4.0,18.0,75,0.00,,---,0.00,VWS V14.01,2013-01-04 09:54:00,
2013-01-04 05:00:00,27.0,20.1,28.83,NW,319,2.0,18.0,75,0.00,,---,0.00,VWS V14.01,2013-01-04 10:00:00,
2013-01-04 05:06:00,27.0,20.5,28.83,NNW,334,5.0,18.0,76,0.00,,---,0.00,VWS V14.01,2013-01-04 10:06:00,
2013-01-04 05:12:00,26.9,20.0,28.83,WNW,303,7.0,18.0,75,0.00,,---,0.00,VWS V14.01,2013-01-04 10:12:00,
2013-01-04 05:18:00,26.9,20.0,28.83,NW,314,7.0,18.0,75,0.00,,---,0.00,VWS V14.01,2013-01-04 10:18:00,
2013-01-04 05:24:00,26.8,20.0,28.83,NW,317,2.0,18.0,75,0.00,,---,0.00,VWS V14.01,2013-01-04 10:24:00,
2013-01-04 05:30:00,26.8,19.6,28.84,NNW,328,6.0,18.0,74,0.00,,---,0.00,VWS V14.01,2013-01-04 10:30:00,
2013-01-04 05:36:00,26.8,19.6,28.84,WNW,289,6.0,17.0,74,0.00,,---,0.00,VWS V14.01,2013-01-04 10:36:00,
2013-01-04 05:42:00,26.8,19.6,28.84,NW,322,7.0,19.0,74,0.00,,---,0.00,VWS V14.01,2013-01-04 10:42:00,
2013-01-04 05:48:00,26.8,19.3,28.84,NW,321,5.0,19.0,73,0.00,,---,0.00,VWS V14.01,2013-01-04 10:48:00,
2013-01-04 05:55:00,26.8,19.3,28.84,NW,317,10.0,19.0,73,0.00,,---,0.00,VWS V14.01,2013-01-04 10:55:00,
2013-01-04 06:00:00,26.8,19.6,28.84,NNW,328,8.0,19.0,74,0.00,,---,0.00,VWS V14.01,2013-01-04 11:00:00,
2013-01-04 06:07:00,26.8,19.3,28.84,NNW,337,12.0,15.0,73,0.00,,---,0.00,VWS V14.01,2013-01-04 11:07:00,
2013-01-04 06:13:00,26.8,19.3,28.84,NW,326,3.0,15.0,73,0.00,,---,0.00,VWS V14.01,2013-01-04 11:13:00,
2013-01-04 06:19:00,26.7,19.2,28.84,NW,324,9.0,15.0,73,0.00,,---,0.00,VWS V14.01,2013-01-04 11:19:00,
2013-01-04 06:25:00,26.7,19.2,28.84,NW,306,10.0,15.0,73,0.00,,---,0.00,VWS V14.01,2013-01-04 11:25:00,
2013-01-04 06:30:00,26.7,19.2,28.85,NW,310,11.0,18.0,73,0.00,,---,0.00,VWS V14.01,2013-01-04 11:30:00,
2013-01-04 06:35:00,26.6,19.1,28.85,NNW,336,7.0,22.0,73,0.00,,---,0.00,VWS V14.01,2013-01-04 11:35:00,
2013-01-04 06:41:00,26.6,19.1,28.86,NNW,347,12.0,22.0,73,0.00,,---,0.00,VWS V14.01,2013-01-04 11:41:00,
2013-01-04 06:47:00,26.6,19.1,28.86,WNW,292,5.0,22.0,73,0.00,,---,0.00,VWS V14.01,2013-01-04 11:47:00,
2013-01-04 06:53:00,26.5,19.0,28.86,NW,322,7.0,22.0,73,0.00,,---,0.00,VWS V14.01,2013-01-04 11:53:00,
2013-01-04 06:59:00,26.5,19.0,28.86,NW,323,4.0,22.0,73,0.00,,---,0.00,VWS V14.01,2013-01-04 11:59:00,
2013-01-04 07:00:00,26.4,18.6,28.82,NNW,333,6.0,20.0,72,0.00,,---,0.00,VWS V14.01,2013-01-04 12:00:00,
2013-01-04 07:05:00,26.5,19.0,28.86,NW,309,8.0,16.0,73,0.00,,---,0.00,VWS V14.01,2013-01-04 12:05:00,
2013-01-04 07:11:00,26.5,19.0,28.85,NW,316,7.0,17.0,73,0.00,,---,0.00,VWS V14.01,2013-01-04 12:11:00,
2013-01-04 07:17:00,26.4,18.9,28.84,West,268,8.0,17.0,73,0.00,,---,0.00,VWS V14.01,2013-01-04 12:17:00,
2013-01-04 07:23:00,26.4,18.9,28.83,NW,320,6.0,17.0,73,0.00,,---,0.00,VWS V14.01,2013-01-04 12:23:00,
2013-01-04 07:29:00,26.3,18.8,28.83,West,278,13.0,21.0,73,0.00,,---,0.00,VWS V14.01,2013-01-04 12:29:00,
2013-01-04 07:30:00,26.5,18.0,28.82,NNW,330,13.0,19.0,70,0.00,,---,0.00,VWS V14.01,2013-01-04 12:30:00,
2013-01-04 07:35:00,26.4,18.9,28.82,NW,308,5.0,15.0,73,0.00,,---,0.00,VWS V14.01,2013-01-04 12:35:00,
2013-01-04 07:42:00,26.4,18.6,28.82,WNW,297,13.0,17.0,72,0.00,,---,0.00,VWS V14.01,2013-01-04 12:42:00,
2013-01-04 07:48:00,26.4,18.6,28.82,North,353,9.0,19.0,72,0.00,,---,0.00,VWS V14.01,2013-01-04 12:48:00,
2013-01-04 07:54:00,26.4,18.6,28.82,WNW,295,7.0,19.0,72,0.00,,---,0.00,VWS V14.01,2013-01-04 12:54:00,
2013-01-04 08:00:00,26.4,18.6,28.82,NW,319,7.0,20.0,72,0.00,,---,0.00,VWS V14.01,2013-01-04 13:00:00,
2013-01-04 08:06:00,26.5,18.4,28.82,NW,320,7.0,14.0,71,0.00,,---,0.00,VWS V14.01,2013-01-04 13:06:00,
2013-01-04 08:12:00,26.5,18.4,28.82,NW,312,3.0,18.0,71,0.00,,---,0.00,VWS V14.01,2013-01-04 13:12:00,
2013-01-04 08:18:00,26.5,18.4,28.82,NW,313,11.0,18.0,71,0.00,,---,0.00,VWS V14.01,2013-01-04 13:18:00,
2013-01-04 08:24:00,26.5,18.4,28.82,NNW,345,12.0,18.0,71,0.00,,---,0.00,VWS V14.01,2013-01-04 13:24:00,
2013-01-04 08:30:00,26.5,18.0,28.82,NNW,330,13.0,19.0,70,0.00,,---,0.00,VWS V14.01,2013-01-04 13:30:00,
2013-01-04 08:36:00,26.6,18.1,28.82,WNW,302,5.0,21.0,70,0.00,,---,0.00,VWS V14.01,2013-01-04 13:36:00,
2013-01-04 08:42:00,26.5,18.0,28.83,NW,319,9.0,21.0,70,0.00,,---,0.00,VWS V14.01,2013-01-04 13:42:00,
2013-01-04 08:48:00,26.5,18.0,28.83,WNW,294,5.0,21.0,70,0.00,,---,0.00,VWS V14.01,2013-01-04 13:48:00,
2013-01-04 08:54:00,26.5,18.0,28.83,NW,304,8.0,21.0,70,0.00,,---,0.00,VWS V14.01,2013-01-04 13:54:00,
2013-01-04 09:00:00,26.5,18.0,28.83,NW,315,8.0,21.0,70,0.00,,---,0.00,VWS V14.01,2013-01-04 14:00:00,
2013-01-04 09:06:00,26.4,18.0,28.82,NW,316,8.0,20.0,70,0.00,,---,0.00,VWS V14.01,2013-01-04 14:06:00,
2013-01-04 09:12:00,26.3,18.2,28.83,NW,306,11.0,20.0,71,0.00,,---,0.00,VWS V14.01,2013-01-04 14:12:00,
2013-01-04 09:18:00,26.3,17.9,28.82,NW,324,7.0,20.0,70,0.00,,---,0.00,VWS V14.01,2013-01-04 14:18:00,
2013-01-04 09:24:00,26.3,17.9,28.82,NW,316,8.0,23.0,70,0.00,,---,0.00,VWS V14.01,2013-01-04 14:24:00,
2013-01-04 09:30:00,26.3,17.9,28.82,NW,307,10.0,23.0,70,0.00,,---,0.00,VWS V14.01,2013-01-04 14:30:00,
2013-01-04 09:37:00,26.4,17.6,28.82,WNW,301,13.0,20.0,69,0.00,,---,0.00,VWS V14.01,2013-01-04 14:37:00,
2013-01-04 09:43:00,26.5,17.4,28.83,NW,320,5.0,20.0,68,0.00,,---,0.00,VWS V14.01,2013-01-04 14:43:00,
2013-01-04 09:49:00,26.5,17.0,28.83,NW,318,13.0,21.0,67,0.00,,---,0.00,VWS V14.01,2013-01-04 14:49:00,
2013-01-04 09:55:00,26.6,17.1,28.83,NNW,336,6.0,24.0,67,0.00,,---,0.00,VWS V14.01,2013-01-04 14:55:00,
2013-01-04 10:00:00,26.6,16.8,28.82,WNW,300,14.0,24.0,66,0.00,,---,0.00,VWS V14.01,2013-01-04 15:00:00,
2013-01-04 10:07:00,26.6,16.4,28.83,North,350,6.0,20.0,65,0.00,,---,0.00,VWS V14.01,2013-01-04 15:07:00,
2013-01-04 10:13:00,26.6,16.1,28.83,NNW,327,16.0,27.0,64,0.00,,---,0.00,VWS V14.01,2013-01-04 15:13:00,
2013-01-04 10:19:00,26.6,16.4,28.83,NW,307,7.0,27.0,65,0.00,,---,0.00,VWS V14.01,2013-01-04 15:19:00,
2013-01-04 10:25:00,26.7,16.5,28.83,NW,326,6.0,27.0,65,0.00,,---,0.00,VWS V14.01,2013-01-04 15:25:00,
2013-01-04 10:30:00,27.7,16.8,28.77,NW,326,12.0,30.0,63,0.00,,---,0.00,VWS V14.01,2013-01-04 15:30:00,
2013-01-04 10:31:00,26.8,16.6,28.82,North,354,6.0,16.0,65,0.00,,---,0.00,VWS V14.01,2013-01-04 15:31:00,
2013-01-04 10:37:00,26.8,16.6,28.83,West,277,8.0,18.0,65,0.00,,---,0.00,VWS V14.01,2013-01-04 15:37:00,
2013-01-04 10:43:00,26.9,16.4,28.82,NNW,333,13.0,24.0,64,0.00,,---,0.00,VWS V14.01,2013-01-04 15:43:00,
2013-01-04 10:49:00,27.1,16.9,28.82,NNW,348,7.0,24.0,65,0.00,,---,0.00,VWS V14.01,2013-01-04 15:49:00,
2013-01-04 10:55:00,27.0,16.8,28.81,NW,325,4.0,24.0,65,0.00,,---,0.00,VWS V14.01,2013-01-04 15:55:00,
2013-01-04 11:00:00,28.5,16.4,28.76,WNW,289,20.0,24.0,60,0.00,,---,0.00,VWS V14.01,2013-01-04 16:00:00,
2013-01-04 11:01:00,27.2,16.6,28.81,NW,311,19.0,25.0,64,0.00,,---,0.00,VWS V14.01,2013-01-04 16:01:00,
2013-01-04 11:07:00,27.3,16.8,28.79,NNW,345,7.0,25.0,64,0.00,,---,0.00,VWS V14.01,2013-01-04 16:07:00,
2013-01-04 11:13:00,27.6,16.7,28.78,NW,320,14.0,25.0,63,0.00,,---,0.00,VWS V14.01,2013-01-04 16:13:00,
2013-01-04 11:19:00,27.3,16.8,28.78,NNW,344,9.0,30.0,64,0.00,,---,0.00,VWS V14.01,2013-01-04 16:19:00,
2013-01-04 11:26:00,27.5,16.6,28.78,NW,324,13.0,30.0,63,0.00,,---,0.00,VWS V14.01,2013-01-04 16:26:00,
2013-01-04 11:30:00,28.8,15.9,28.75,NW,324,5.0,22.0,58,0.00,,---,0.00,VWS V14.01,2013-01-04 16:30:00,
2013-01-04 11:32:00,27.7,16.4,28.77,NW,326,16.0,24.0,62,0.00,,---,0.00,VWS V14.01,2013-01-04 16:32:00,
2013-01-04 11:38:00,27.7,16.0,28.77,NW,323,13.0,24.0,61,0.00,,---,0.00,VWS V14.01,2013-01-04 16:38:00,
2013-01-04 11:44:00,27.9,16.6,28.77,NNW,330,11.0,24.0,62,0.00,,---,0.00,VWS V14.01,2013-01-04 16:44:00,
2013-01-04 11:50:00,28.1,16.4,28.77,NW,323,13.0,24.0,61,0.00,,---,0.00,VWS V14.01,2013-01-04 16:50:00,
2013-01-04 11:56:00,28.3,16.6,28.77,NNW,329,8.0,24.0,61,0.00,,---,0.00,VWS V14.01,2013-01-04 16:56:00,
2013-01-04 12:00:00,29.3,16.0,28.75,WNW,294,9.0,23.0,57,0.00,,---,0.00,VWS V14.01,2013-01-04 17:00:00,
2013-01-04 12:02:00,28.5,16.0,28.77,NW,307,13.0,20.0,59,0.00,,---,0.00,VWS V14.01,2013-01-04 17:02:00,
2013-01-04 12:08:00,28.4,15.9,28.76,WNW,298,10.0,22.0,59,0.00,,---,0.00,VWS V14.01,2013-01-04 17:08:00,
2013-01-04 12:14:00,28.6,16.1,28.76,NW,306,12.0,22.0,59,0.00,,---,0.00,VWS V14.01,2013-01-04 17:14:00,
2013-01-04 12:20:00,28.7,16.6,28.76,NNW,348,9.0,22.0,60,0.00,,---,0.00,VWS V14.01,2013-01-04 17:20:00,
2013-01-04 12:26:00,28.9,16.4,28.75,NNW,333,17.0,22.0,59,0.00,,---,0.00,VWS V14.01,2013-01-04 17:26:00,
2013-01-04 12:30:00,30.1,15.9,28.74,WNW,302,5.0,23.0,55,0.00,,---,0.00,VWS V14.01,2013-01-04 17:30:00,
2013-01-04 12:32:00,28.8,16.3,28.75,WNW,294,14.0,23.0,59,0.00,,---,0.00,VWS V14.01,2013-01-04 17:32:00,
2013-01-04 12:38:00,28.8,16.3,28.75,West,281,5.0,23.0,59,0.00,,---,0.00,VWS V14.01,2013-01-04 17:38:00,
2013-01-04 12:44:00,29.1,16.2,28.75,NW,320,13.0,23.0,58,0.00,,---,0.00,VWS V14.01,2013-01-04 17:44:00,
2013-01-04 12:50:00,29.2,15.9,28.75,NW,312,9.0,23.0,57,0.00,,---,0.00,VWS V14.01,2013-01-04 17:50:00,
2013-01-04 12:56:00,29.3,16.0,28.75,WNW,299,12.0,23.0,57,0.00,,---,0.00,VWS V14.01,2013-01-04 17:56:00,
2013-01-04 13:00:00,30.4,15.8,28.73,NNW,330,5.0,21.0,54,0.00,,---,0.00,VWS V14.01,2013-01-04 18:00:00,
2013-01-04 13:02:00,29.4,16.1,28.75,NW,325,14.0,16.0,57,0.00,,---,0.00,VWS V14.01,2013-01-04 18:02:00,
2013-01-04 13:08:00,29.3,15.6,28.74,WNW,293,10.0,19.0,56,0.00,,---,0.00,VWS V14.01,2013-01-04 18:08:00,
2013-01-04 13:14:00,29.7,15.9,28.74,NW,317,10.0,19.0,56,0.00,,---,0.00,VWS V14.01,2013-01-04 18:14:00,
2013-01-04 13:20:00,29.9,16.1,28.74,NNW,340,7.0,19.0,56,0.00,,---,0.00,VWS V14.01,2013-01-04 18:20:00,
2013-01-04 13:27:00,30.2,16.0,28.74,NW,305,9.0,23.0,55,0.00,,---,0.00,VWS V14.01,2013-01-04 18:27:00,
2013-01-04 13:30:00,30.7,15.6,28.74,West,280,19.0,21.0,53,0.00,,---,0.00,VWS V14.01,2013-01-04 18:30:00,
2013-01-04 13:33:00,30.0,15.8,28.74,NNW,331,13.0,21.0,55,0.00,,---,0.00,VWS V14.01,2013-01-04 18:33:00,
2013-01-04 13:39:00,30.0,15.8,28.73,NW,320,7.0,21.0,55,0.00,,---,0.00,VWS V14.01,2013-01-04 18:39:00,
2013-01-04 13:45:00,30.2,16.0,28.73,NW,311,11.0,21.0,55,0.00,,---,0.00,VWS V14.01,2013-01-04 18:45:00,
2013-01-04 13:51:00,30.3,16.1,28.73,WNW,283,9.0,21.0,55,0.00,,---,0.00,VWS V14.01,2013-01-04 18:51:00,
2013-01-04 13:57:00,30.4,16.2,28.73,West,275,8.0,21.0,55,0.00,,---,0.00,VWS V14.01,2013-01-04 18:57:00,
2013-01-04 14:00:00,31.0,15.9,28.74,NW,311,5.0,21.0,53,0.00,,---,0.00,VWS V14.01,2013-01-04 19:00:00,
2013-01-04 14:03:00,30.4,15.8,28.73,NW,321,10.0,15.0,54,0.00,,---,0.00,VWS V14.01,2013-01-04 19:03:00,
2013-01-04 14:09:00,30.4,15.3,28.73,NW,321,8.0,16.0,53,0.00,,---,0.00,VWS V14.01,2013-01-04 19:09:00,
2013-01-04 14:15:00,30.5,15.9,28.73,NW,324,12.0,19.0,54,0.00,,---,0.00,VWS V14.01,2013-01-04 19:15:00,
2013-01-04 14:21:00,30.6,15.5,28.73,NW,307,8.0,19.0,53,0.00,,---,0.00,VWS V14.01,2013-01-04 19:21:00,
2013-01-04 14:27:00,30.7,16.0,28.74,West,280,7.0,19.0,54,0.00,,---,0.00,VWS V14.01,2013-01-04 19:27:00,
2013-01-04 14:30:00,31.3,15.3,28.75,NNW,330,7.0,18.0,51,0.00,,---,0.00,VWS V14.01,2013-01-04 19:30:00,
2013-01-04 14:33:00,30.7,15.6,28.74,NW,324,5.0,19.0,53,0.00,,---,0.00,VWS V14.01,2013-01-04 19:33:00,
2013-01-04 14:39:00,31.1,16.4,28.74,WNW,288,6.0,19.0,54,0.00,,---,0.00,VWS V14.01,2013-01-04 19:39:00,
2013-01-04 14:45:00,30.9,15.8,28.74,WNW,299,8.0,21.0,53,0.00,,---,0.00,VWS V14.01,2013-01-04 19:45:00,
2013-01-04 14:51:00,30.8,15.7,28.74,NW,316,6.0,21.0,53,0.00,,---,0.00,VWS V14.01,2013-01-04 19:51:00,
2013-01-04 14:57:00,30.9,15.8,28.74,WNW,288,7.0,21.0,53,0.00,,---,0.00,VWS V14.01,2013-01-04 19:57:00,
2013-01-04 15:00:00,30.8,15.3,28.75,NW,308,8.0,22.0,52,0.00,,---,0.00,VWS V14.01,2013-01-04 20:00:00,
2013-01-04 15:03:00,31.1,16.0,28.74,WNW,297,8.0,15.0,53,0.00,,---,0.00,VWS V14.01,2013-01-04 20:03:00,
2013-01-04 15:09:00,31.1,15.5,28.74,WNW,299,9.0,17.0,52,0.00,,---,0.00,VWS V14.01,2013-01-04 20:09:00,
2013-01-04 15:15:00,31.1,15.5,28.74,NW,318,9.0,18.0,52,0.00,,---,0.00,VWS V14.01,2013-01-04 20:15:00,
2013-01-04 15:21:00,31.2,15.6,28.74,North,3,7.0,18.0,52,0.00,,---,0.00,VWS V14.01,2013-01-04 20:21:00,
2013-01-04 15:28:00,31.4,15.4,28.75,NW,324,9.0,18.0,51,0.00,,---,0.00,VWS V14.01,2013-01-04 20:28:00,
2013-01-04 15:30:00,30.3,14.8,28.75,NW,317,9.0,19.0,52,0.00,,---,0.00,VWS V14.01,2013-01-04 20:30:00,
2013-01-04 15:34:00,31.3,15.3,28.75,West,270,3.0,20.0,51,0.00,,---,0.00,VWS V14.01,2013-01-04 20:34:00,
2013-01-04 15:40:00,31.2,15.6,28.75,NW,325,15.0,20.0,52,0.00,,---,0.00,VWS V14.01,2013-01-04 20:40:00,
2013-01-04 15:46:00,31.0,15.0,28.75,NW,315,4.0,20.0,51,0.00,,---,0.00,VWS V14.01,2013-01-04 20:46:00,
2013-01-04 15:52:00,30.9,15.4,28.75,NNW,335,6.0,20.0,52,0.00,,---,0.00,VWS V14.01,2013-01-04 20:52:00,
2013-01-04 15:58:00,30.9,14.9,28.75,NW,310,8.0,22.0,51,0.00,,---,0.00,VWS V14.01,2013-01-04 20:58:00,
2013-01-04 16:00:00,29.2,14.6,28.75,North,355,9.0,17.0,54,0.00,,---,0.00,VWS V14.01,2013-01-04 21:00:00,
2013-01-04 16:04:00,30.8,15.3,28.75,NNW,330,10.0,16.0,52,0.00,,---,0.00,VWS V14.01,2013-01-04 21:04:00,
2013-01-04 16:10:00,30.7,15.2,28.74,NW,315,7.0,18.0,52,0.00,,---,0.00,VWS V14.01,2013-01-04 21:10:00,
2013-01-04 16:16:00,30.6,15.1,28.75,NW,326,16.0,19.0,52,0.00,,---,0.00,VWS V14.01,2013-01-04 21:16:00,
2013-01-04 16:22:00,30.5,15.0,28.75,NW,321,15.0,19.0,52,0.00,,---,0.00,VWS V14.01,2013-01-04 21:22:00,
2013-01-04 16:28:00,30.4,14.9,28.75,NW,324,12.0,19.0,52,0.00,,---,0.00,VWS V14.01,2013-01-04 21:28:00,
2013-01-04 16:30:00,28.5,14.4,28.76,NNW,336,12.0,20.0,55,0.00,,---,0.00,VWS V14.01,2013-01-04 21:30:00,
2013-01-04 16:34:00,30.1,15.1,28.75,West,278,7.0,15.0,53,0.00,,---,0.00,VWS V14.01,2013-01-04 21:34:00,
2013-01-04 16:40:00,29.9,14.9,28.75,NW,309,6.0,17.0,53,0.00,,---,0.00,VWS V14.01,2013-01-04 21:40:00,
2013-01-04 16:46:00,29.6,15.0,28.75,NW,325,6.0,17.0,54,0.00,,---,0.00,VWS V14.01,2013-01-04 21:46:00,
2013-01-04 16:52:00,29.5,14.5,28.75,NW,325,8.0,17.0,53,0.00,,---,0.00,VWS V14.01,2013-01-04 21:52:00,
2013-01-04 16:58:00,29.2,14.6,28.75,NW,307,2.0,17.0,54,0.00,,---,0.00,VWS V14.01,2013-01-04 21:58:00,
2013-01-04 17:00:00,28.0,13.9,28.78,NW,310,13.0,19.0,55,0.00,,---,0.00,VWS V14.01,2013-01-04 22:00:00,
2013-01-04 17:05:00,29.0,14.4,28.75,NW,314,9.0,19.0,54,0.00,,---,0.00,VWS V14.01,2013-01-04 22:05:00,
2013-01-04 17:11:00,28.9,14.4,28.76,NW,308,11.0,19.0,54,0.00,,---,0.00,VWS V14.01,2013-01-04 22:11:00,
2013-01-04 17:17:00,28.8,14.7,28.76,NW,319,11.0,19.0,55,0.00,,---,0.00,VWS V14.01,2013-01-04 22:17:00,
2013-01-04 17:23:00,28.7,14.2,28.76,NNW,333,8.0,20.0,54,0.00,,---,0.00,VWS V14.01,2013-01-04 22:23:00,
2013-01-04 17:29:00,28.5,14.4,28.76,NW,307,11.0,20.0,55,0.00,,---,0.00,VWS V14.01,2013-01-04 22:29:00,
2013-01-04 17:30:00,27.5,13.9,28.78,WNW,303,3.0,16.0,56,0.00,,---,0.00,VWS V14.01,2013-01-04 22:30:00,
2013-01-04 17:35:00,28.4,14.3,28.76,NW,311,5.0,16.0,55,0.00,,---,0.00,VWS V14.01,2013-01-04 22:35:00,
2013-01-04 17:41:00,28.3,14.2,28.76,WNW,294,10.0,18.0,55,0.00,,---,0.00,VWS V14.01,2013-01-04 22:41:00,
2013-01-04 17:47:00,28.2,14.1,28.77,NW,318,11.0,19.0,55,0.00,,---,0.00,VWS V14.01,2013-01-04 22:47:00,
2013-01-04 17:53:00,28.2,14.1,28.77,NW,320,10.0,19.0,55,0.00,,---,0.00,VWS V14.01,2013-01-04 22:53:00,
2013-01-04 17:59:00,28.0,13.9,28.78,WNW,302,8.0,19.0,55,0.00,,---,0.00,VWS V14.01,2013-01-04 22:59:00,
2013-01-04 18:00:00,27.1,13.9,28.81,NNW,328,12.0,18.0,57,0.00,,---,0.00,VWS V14.01,2013-01-04 23:00:00,
2013-01-04 18:05:00,28.0,13.9,28.78,NNW,328,9.0,16.0,55,0.00,,---,0.00,VWS V14.01,2013-01-04 23:05:00,
2013-01-04 18:11:00,27.8,14.2,28.78,North,351,10.0,16.0,56,0.00,,---,0.00,VWS V14.01,2013-01-04 23:11:00,
2013-01-04 18:17:00,27.7,14.1,28.78,NW,313,8.0,16.0,56,0.00,,---,0.00,VWS V14.01,2013-01-04 23:17:00,
2013-01-04 18:23:00,27.7,14.1,28.78,NW,324,14.0,16.0,56,0.00,,---,0.00,VWS V14.01,2013-01-04 23:23:00,
2013-01-04 18:29:00,27.5,13.9,28.78,West,272,6.0,16.0,56,0.00,,---,0.00,VWS V14.01,2013-01-04 23:29:00,
2013-01-04 18:30:00,26.9,13.3,28.83,North,358,5.0,16.0,56,0.00,,---,0.00,VWS V14.01,2013-01-04 23:30:00,
2013-01-04 18:36:00,27.4,14.2,28.78,WNW,300,8.0,11.0,57,0.00,,---,0.00,VWS V14.01,2013-01-04 23:36:00,
2013-01-04 18:42:00,27.3,14.1,28.79,North,0,2.0,13.0,57,0.00,,---,0.00,VWS V14.01,2013-01-04 23:42:00,
2013-01-04 18:48:00,27.2,14.0,28.80,NNW,335,3.0,13.0,57,0.00,,---,0.00,VWS V14.01,2013-01-04 23:48:00,
2013-01-04 18:54:00,27.1,13.9,28.80,NNW,335,6.0,18.0,57,0.00,,---,0.00,VWS V14.01,2013-01-04 23:54:00,
2013-01-04 19:00:00,27.1,13.9,28.81,NNW,347,6.0,18.0,57,0.00,,---,0.00,VWS V14.01,2013-01-05 00:00:00,
2013-01-04 19:06:00,27.1,13.9,28.81,North,0,4.0,12.0,57,0.00,,---,0.00,VWS V14.01,2013-01-05 00:06:00,
2013-01-04 19:12:00,27.0,13.4,28.82,NW,317,9.0,15.0,56,0.00,,---,0.00,VWS V14.01,2013-01-05 00:12:00,
2013-01-04 19:18:00,26.9,13.7,28.82,NW,320,10.0,15.0,57,0.00,,---,0.00,VWS V14.01,2013-01-05 00:18:00,
2013-01-04 19:24:00,26.9,13.3,28.83,NNW,333,8.0,16.0,56,0.00,,---,0.00,VWS V14.01,2013-01-05 00:24:00,
2013-01-04 19:30:00,26.9,13.3,28.83,North,358,5.0,16.0,56,0.00,,---,0.00,VWS V14.01,2013-01-05 00:30:00,
2013-01-04 19:36:00,26.8,13.2,28.84,NW,323,8.0,20.0,56,0.00,,---,0.00,VWS V14.01,2013-01-05 00:36:00,
2013-01-04 19:42:00,26.8,13.6,28.84,NW,324,8.0,20.0,57,0.00,,---,0.00,VWS V14.01,2013-01-05 00:42:00,
2013-01-04 19:48:00,26.7,13.5,28.84,NNE,16,7.0,20.0,57,0.00,,---,0.00,VWS V14.01,2013-01-05 00:48:00,
2013-01-04 19:54:00,26.6,13.4,28.85,NW,326,7.0,20.0,57,0.00,,---,0.00,VWS V14.01,2013-01-05 00:54:00,
2013-01-04 20:00:00,26.6,13.4,28.85,NW,317,3.0,20.0,57,0.00,,---,0.00,VWS V14.01,2013-01-05 01:00:00,
2013-01-04 20:06:00,26.5,13.3,28.86,NNW,329,5.0,13.0,57,0.00,,---,0.00,VWS V14.01,2013-01-05 01:06:00,
2013-01-04 20:12:00,26.5,13.7,28.86,NW,314,9.0,13.0,58,0.00,,---,0.00,VWS V14.01,2013-01-05 01:12:00,
2013-01-04 20:18:00,26.6,13.8,28.87,NNW,336,6.0,14.0,58,0.00,,---,0.00,VWS V14.01,2013-01-05 01:18:00,
2013-01-04 20:24:00,26.7,13.9,28.87,NW,305,6.0,16.0,58,0.00,,---,0.00,VWS V14.01,2013-01-05 01:24:00,
2013-01-04 20:30:00,26.7,13.9,28.87,NW,316,10.0,16.0,58,0.00,,---,0.00,VWS V14.01,2013-01-05 01:30:00,
2013-01-04 20:37:00,26.7,13.9,28.87,North,1,12.0,14.0,58,0.00,,---,0.00,VWS V14.01,2013-01-05 01:37:00,
2013-01-04 20:43:00,26.7,13.9,28.87,NW,312,13.0,17.0,58,0.00,,---,0.00,VWS V14.01,2013-01-05 01:43:00,
2013-01-04 20:49:00,26.7,13.9,28.87,NNW,329,10.0,18.0,58,0.00,,---,0.00,VWS V14.01,2013-01-05 01:49:00,
2013-01-04 20:55:00,26.7,13.9,28.87,NNW,331,9.0,18.0,58,0.00,,---,0.00,VWS V14.01,2013-01-05 01:55:00,
2013-01-04 21:00:00,26.6,13.8,28.87,NNW,328,12.0,18.0,58,0.00,,---,0.00,VWS V14.01,2013-01-05 02:00:00,
2013-01-04 21:07:00,26.6,14.2,28.87,NW,305,14.0,18.0,59,0.00,,---,0.00,VWS V14.01,2013-01-05 02:07:00,
2013-01-04 21:13:00,26.5,14.1,28.87,NW,305,15.0,21.0,59,0.00,,---,0.00,VWS V14.01,2013-01-05 02:13:00,
2013-01-04 21:19:00,26.5,14.5,28.87,NW,323,9.0,21.0,60,0.00,,---,0.00,VWS V14.01,2013-01-05 02:19:00,
2013-01-04 21:25:00,26.5,14.5,28.88,NNW,328,9.0,21.0,60,0.00,,---,0.00,VWS V14.01,2013-01-05 02:25:00,
2013-01-04 21:30:00,26.5,14.9,28.88,NW,306,7.0,21.0,61,0.00,,---,0.00,VWS V14.01,2013-01-05 02:30:00,
2013-01-04 21:35:00,26.5,14.9,28.88,North,356,6.0,19.0,61,0.00,,---,0.00,VWS V14.01,2013-01-05 02:35:00,
2013-01-04 21:41:00,26.4,14.8,28.88,NNW,332,16.0,20.0,61,0.00,,---,0.00,VWS V14.01,2013-01-05 02:41:00,
2013-01-04 21:47:00,26.4,14.8,28.89,NNW,341,6.0,20.0,61,0.00,,---,0.00,VWS V14.01,2013-01-05 02:47:00,
2013-01-04 21:53:00,26.4,15.2,28.89,NNW,331,12.0,20.0,62,0.00,,---,0.00,VWS V14.01,2013-01-05 02:53:00,
2013-01-04 21:59:00,26.4,15.5,28.89,NW,326,7.0,20.0,63,0.00,,---,0.00,VWS V14.01,2013-01-05 02:59:00,
2013-01-04 22:00:00,26.4,17.3,28.92,NW,323,8.0,15.0,68,0.00,,---,0.00,VWS V14.01,2013-01-05 03:00:00,
2013-01-04 22:05:00,26.3,15.4,28.90,NW,322,8.0,14.0,63,0.00,,---,0.00,VWS V14.01,2013-01-05 03:05:00,
2013-01-04 22:11:00,26.4,15.9,28.90,NNW,337,7.0,17.0,64,0.00,,---,0.00,VWS V14.01,2013-01-05 03:11:00,
2013-01-04 22:17:00,26.4,15.9,28.90,NNW,334,9.0,17.0,64,0.00,,---,0.00,VWS V14.01,2013-01-05 03:17:00,
2013-01-04 22:23:00,26.4,16.2,28.90,North,354,7.0,17.0,65,0.00,,---,0.00,VWS V14.01,2013-01-05 03:23:00,
2013-01-04 22:29:00,26.3,16.1,28.91,NNW,336,6.0,17.0,65,0.00,,---,0.00,VWS V14.01,2013-01-05 03:29:00,
2013-01-04 22:30:00,26.4,17.6,28.92,NW,313,9.0,15.0,69,0.00,,---,0.00,VWS V14.01,2013-01-05 03:30:00,
2013-01-04 22:35:00,26.3,16.5,28.91,NNW,344,4.0,13.0,66,0.00,,---,0.00,VWS V14.01,2013-01-05 03:35:00,
2013-01-04 22:41:00,26.4,16.6,28.91,NNW,327,6.0,13.0,66,0.00,,---,0.00,VWS V14.01,2013-01-05 03:41:00,
2013-01-04 22:47:00,26.4,16.6,28.91,NNW,335,6.0,15.0,66,0.00,,---,0.00,VWS V14.01,2013-01-05 03:47:00,
2013-01-04 22:54:00,26.3,16.9,28.91,NW,319,5.0,15.0,67,0.00,,---,0.00,VWS V14.01,2013-01-05 03:54:00,
2013-01-04 23:00:00,26.4,16.9,28.91,NNW,327,5.0,15.0,67,0.00,,---,0.00,VWS V14.01,2013-01-05 04:00:00,
2013-01-04 23:06:00,26.4,17.3,28.92,NNW,347,6.0,13.0,68,0.00,,---,0.00,VWS V14.01,2013-01-05 04:06:00,
2013-01-04 23:12:00,26.4,17.3,28.92,NW,318,7.0,14.0,68,0.00,,---,0.00,VWS V14.01,2013-01-05 04:12:00,
2013-01-04 23:18:00,26.4,17.3,28.92,NNW,333,6.0,14.0,68,0.00,,---,0.00,VWS V14.01,2013-01-05 04:18:00,
2013-01-04 23:24:00,26.4,17.6,28.92,NW,317,4.0,15.0,69,0.00,,---,0.00,VWS V14.01,2013-01-05 04:24:00,
2013-01-04 23:30:00,26.4,17.6,28.92,NW,309,10.0,15.0,69,0.00,,---,0.00,VWS V14.01,2013-01-05 04:30:00,
2013-01-04 23:36:00,26.4,17.6,28.92,NW,318,10.0,12.0,69,0.00,,---,0.00,VWS V14.01,2013-01-05 04:36:00,
2013-01-04 23:42:00,26.4,18.0,28.92,NW,312,3.0,12.0,70,0.00,,---,0.00,VWS V14.01,2013-01-05 04:42:00,
2013-01-04 23:48:00,26.4,17.6,28.92,NW,312,8.0,14.0,69,0.00,,---,0.00,VWS V14.01,2013-01-05 04:48:00,
2013-01-04 23:54:00,26.4,18.0,28.91,NW,306,6.0,14.0,70,0.00,,---,0.00,VWS V14.01,2013-01-05 04:54:00,